This is the latest recevied weather packets stored in our database for station/object EA5JPW-10. If no packets are shown the sender has not sent any weather packets the latest 10 day(s).
| Time | Temp. | Humidity | Pressure | Rain* | Wind** | Luminosity | Snow |
|---|---|---|---|---|---|---|---|
| 1777147427 | 16.11° C | 42% | 996.5 hPa | - | - | - | - |
| 1777146535 | 16.11° C | 43% | 996.3 hPa | - | - | - | - |
| 1777145635 | 16.67° C | 43% | 996.3 hPa | - | - | - | - |
| 1777144734 | 16.67° C | 42% | 996.1 hPa | - | - | - | - |
| 1777143834 | 16.67° C | 42% | 996.1 hPa | - | - | - | - |
| 1777142934 | 16.67° C | 43% | 995.9 hPa | - | - | - | - |
| 1777142033 | 16.67° C | 43% | 995.9 hPa | - | - | - | - |
| 1777141133 | 17.22° C | 43% | 995.6 hPa | - | - | - | - |
| 1777140233 | 17.22° C | 42% | 995.6 hPa | - | - | - | - |
| 1777139332 | 17.78° C | 42% | 995.4 hPa | - | - | - | - |
| 1777138432 | 18.33° C | 42% | 995.7 hPa | - | - | - | - |
| 1777137532 | 18.33° C | 42% | 995.8 hPa | - | - | - | - |
| 1777136632 | 18.33° C | 42% | 995.7 hPa | - | - | - | - |
| 1777135732 | 18.89° C | 41% | 995.6 hPa | - | - | - | - |
| 1777134832 | 19.44° C | 41% | 995.7 hPa | - | - | - | - |
| 1777133931 | 18.89° C | 41% | 996 hPa | - | - | - | - |
| 1777133031 | 17.78° C | 42% | 995.8 hPa | - | - | - | - |
| 1777132131 | 17.78° C | 41% | 995.5 hPa | - | - | - | - |
| 1777131231 | 17.78° C | 41% | 995.7 hPa | - | - | - | - |
| 1777130330 | 17.22° C | 42% | 996 hPa | - | - | - | - |
| 1777129429 | 17.22° C | 42% | 995.8 hPa | - | - | - | - |
| 1777128529 | 18.89° C | 42% | 996.1 hPa | - | - | - | - |
* Rain since midnight (hover to see other rain measurements)
** Current wind speed in m/s (hover to see current wind gust speed)